FW8091 Weather Reports


time (UTC)temp
C
wind
direction
speed
KPH
gust
KPH
rain 1hr
cm
rain 24hr
cm
rain mn
cm
humidity
%
barometer
mb
20260507141512 16 18 9.7 17.7 0.00 1.37 1.37 61 1012.9
20260507140027 16 43 8.0 14.5 0.05 1.37 1.37 62 1012.9
20260507134512 15 354 8.0 20.9 0.97 1.37 1.37 63 1012.9
20260507133011 15 41 14.5 20.9 0.99 1.37 1.37 64 1013.4
20260507131507 15 32 3.2 9.7 1.09 1.37 1.37 65 1013.7
20260507130006 15 37 4.8 30.6 1.09 1.32 1.32 65 1013.9
20260507124503 15 247 8.0 14.5 0.33 0.41 0.41 65 1013.6
20260507123003 15 292 8.0 14.5 0.33 0.36 0.36 63 1013.9
20260507121532 15 210 9.7 17.7 0.28 0.28 0.28 63 1013.9
20260507120031 15 177 8.0 16.1 0.23 0.23 0.23 62 1013.8
20260507114553 17 140 8.0 17.7 0.08 0.08 0.08 62 1014.5
20260507113125 17 75 19.3 33.8 0.03 0.03 0.03 61 1014.4
20260507111550 17 37 22.5 33.8 0.00 0.00 0.00 61 1014.0
20260507110048 17 43 22.5 32.2 0.00 0.00 0.00 61 1014.2
20260507104558 17 32 20.9 35.4 0.00 0.00 0.00 62 1014.1
20260507103047 17 63 19.3 29.0 0.00 0.00 0.00 62 1014.3
20260507101544 17 41 19.3 29.0 0.00 0.00 0.00 63 1014.4
20260507100053 17 33 19.3 30.6 0.00 0.00 0.00 63 1014.3
20260507094540 17 60 19.3 32.2 0.00 0.00 0.00 62 1014.2
20260507093040 17 49 20.9 35.4 0.00 0.00 0.00 62 1014.1
20260507091541 17 54 19.3 33.8 0.00 0.00 0.00 61 1014.3
20260507090034 17 55 19.3 33.8 0.00 0.00 0.00 61 1014.5
20260507084546 17 47 22.5 32.2 0.00 0.00 0.00 62 1014.3
20260507083029 17 46 19.3 32.2 0.00 0.00 0.00 61 1014.2
20260507081524 17 41 22.5 32.2 0.00 0.00 0.00 61 1014.2
20260507080024 17 53 20.9 35.4 0.00 0.00 0.00 60 1014.2
20260507074523 17 60 20.9 33.8 0.00 0.00 0.00 60 1014.2
20260507073024 17 25 22.5 30.6 0.00 0.00 0.00 61 1014.2
20260507071519 17 52 22.5 32.2 0.00 0.00 0.00 61 1014.1
20260507070021 17 37 17.7 30.6 0.00 0.00 0.00 62 1013.8
20260507064516 17 32 19.3 32.2 0.00 0.00 0.00 62 1013.7
20260507063015 17 33 14.5 37.0 0.00 0.00 0.00 63 1013.4
20260507061513 17 33 20.9 32.2 0.00 0.00 0.00 63 1013.4
20260507060010 17 60 16.1 29.0 0.00 0.00 0.00 63 1013.3
20260507054507 17 56 19.3 25.7 0.00 0.00 0.00 62 1013.2
20260507053005 17 38 14.5 29.0 0.00 0.00 0.00 62 1013.3
20260507051501 17 31 16.1 30.6 0.00 0.00 0.00 62 1013.1
20260507050003 17 48 16.1 27.4 0.00 0.00 0.00 62 1013.0
20260507044600 17 14 12.9 24.1 0.00 0.00 0.00 63 1012.8
20260507043058 17 28 16.1 24.1 0.00 0.00 0.00 63 1012.9
20260507041555 17 43 11.3 25.7 0.00 0.00 0.00 63 1013.0
20260507040056 17 53 16.1 27.4 0.00 0.00 0.00 63 1013.1
20260507034550 17 42 17.7 25.7 0.00 0.00 0.00 63 1013.0
20260507033050 17 34 16.1 27.4 0.00 0.00 0.00 62 1012.8
20260507031543 17 70 14.5 22.5 0.00 0.00 0.00 62 1012.9
20260507030042 17 33 11.3 17.7 0.00 0.00 0.00 62 1013.0
20260507024545 17 22 9.7 14.5 0.00 0.00 0.00 62 1013.1
20260507023038 17 21 12.9 20.9 0.00 0.00 0.00 62 1013.3
20260507021515 17 48 12.9 22.5 0.00 0.00 0.00 62 1013.2
20260507020004 17 36 12.9 24.1 0.00 0.00 0.00 61 1013.4
20260507014601 17 41 14.5 20.9 0.00 0.00 0.00 61 1013.5
20260507013034 17 52 9.7 22.5 0.00 0.00 0.00 61 1013.8
20260507011537 17 50 11.3 20.9 0.00 0.00 0.00 62 1013.7
20260507010056 17 57 9.7 20.9 0.00 0.00 0.00 62 1013.7
20260507004554 17 25 11.3 22.5 0.00 0.00 0.00 62 1013.7
20260507003050 17 44 11.3 17.7 0.00 0.00 0.00 61 1013.8
20260507001547 17 43 9.7 19.3 0.00 0.00 0.00 61 1013.7
20260507000046 17 33 12.9 19.3 0.00 0.00 0.00 60 1013.6
20260506234552 18 58 4.8 17.7 0.00 0.00 0.00 60 1014.0
20260506233041 17 40 6.4 16.1 0.00 0.00 0.00 60 1014.1
20260506231540 17 40 6.4 16.1 0.00 0.00 0.00 60 1014.2
20260506230039 17 32 6.4 14.5 0.00 0.00 0.00 60 1014.3
20260506224544 18 47 4.8 12.9 0.00 0.00 0.00 60 1014.4
20260506223037 18 50 8.0 16.1 0.00 0.00 0.00 60 1014.2
20260506221536 18 64 11.3 17.7 0.00 0.00 0.00 60 1014.0
20260506220037 18 62 9.7 19.3 0.00 0.00 0.00 60 1014.3
20260506214535 18 47 6.4 17.7 0.00 0.00 0.00 60 1014.5
20260506213033 18 67 9.7 17.7 0.00 0.00 0.00 60 1014.9
20260506211531 18 73 8.0 17.7 0.00 0.00 0.00 60 1014.8
20260506210035 18 73 11.3 17.7 0.00 0.00 0.00 60 1014.8
20260506204545 18 96 12.9 17.7 0.00 0.00 0.00 60 1014.8
20260506203030 18 120 11.3 17.7 0.00 0.00 0.00 61 1014.5
20260506201530 18 82 6.4 17.7 0.00 0.00 0.00 61 1014.3
20260506200024 18 94 9.7 19.3 0.00 0.00 0.00 61 1014.0
20260506194524 18 97 12.9 17.7 0.00 0.00 0.00 61 1013.9
20260506193020 18 88 9.7 20.9 0.00 0.00 0.00 61 1013.6
20260506191520 18 68 14.5 20.9 0.00 0.00 0.00 61 1013.5
20260506190019 18 93 12.9 19.3 0.00 0.00 0.00 60 1013.5
20260506184519 18 91 14.5 20.9 0.00 0.00 0.00 60 1013.3
20260506183016 18 86 11.3 17.7 0.00 0.00 0.00 60 1013.1
20260506181524 18 102 14.5 22.5 0.00 0.00 0.00 60 1013.0
20260506180016 18 65 11.3 22.5 0.00 0.00 0.00 60 1013.0
20260506174515 18 88 17.7 22.5 0.00 0.00 0.00 60 1013.1
20260506173014 18 95 17.7 20.9 0.00 0.00 0.00 61 1013.0
20260506171522 18 118 16.1 25.7 0.00 0.00 0.00 60 1012.9
20260506170012 18 99 14.5 24.1 0.00 0.00 0.00 60 1012.9
20260506164512 18 85 20.9 30.6 0.00 0.00 0.00 59 1013.0
20260506163010 18 85 20.9 32.2 0.00 0.00 0.00 59 1013.0
20260506161509 18 89 17.7 35.4 0.00 0.00 0.00 60 1013.1
20260506160008 18 83 17.7 33.8 0.00 0.00 0.00 60 1013.0
20260506154508 18 96 20.9 37.0 0.00 0.00 0.00 60 1013.0
20260506153037 18 81 25.7 33.8 0.00 0.00 0.00 59 1012.9
20260506151555 18 97 20.9 30.6 0.00 0.00 0.00 58 1013.1
20260506150035 18 54 20.9 30.6 0.00 0.00 0.00 57 1013.2
20260506144535 18 68 19.3 32.2 0.00 0.00 0.00 56 1013.2
20260506143044 19 56 19.3 27.4 0.00 0.00 0.00 55 1013.2